Hourly Weather Bolshoy Artash

Today, 1 August, Sunday

Time Temperature Precipitation Wind Pressure Humidity
00:00 +20°C° 0 mm 3 mps 744 mmHg 82%
01:00 +19°C° 0 mm 3 mps 744 mmHg 81%
02:00 +19°C° 0 mm 3 mps 744 mmHg 80%
03:00 +18°C° 0 mm 3 mps 744 mmHg 79%
04:00 +19°C° 0 mm 4 mps 745 mmHg 75%
05:00 +20°C° 0 mm 4 mps 745 mmHg 72%
06:00 +20°C° 0 mm 4 mps 745 mmHg 69%
07:00 +22°C° 0 mm 4 mps 746 mmHg 63%
08:00 +25°C° 0 mm 4 mps 746 mmHg 56%
09:00 +26°C° 0 mm 4 mps 746 mmHg 50%
10:00 +27°C° 0 mm 4 mps 746 mmHg 46%
11:00 +28°C° 0 mm 5 mps 746 mmHg 42%
12:00 +29°C° 0 mm 5 mps 747 mmHg 38%
13:00 +29°C° 0 mm 5 mps 747 mmHg 37%
14:00 +29°C° 0 mm 5 mps 747 mmHg 37%
15:00 +29°C° 0 mm 5 mps 747 mmHg 36%
16:00 +28°C° 0 mm 4 mps 747 mmHg 42%
17:00 +27°C° 0 mm 4 mps 747 mmHg 48%
18:00 +26°C° 0 mm 3 mps 747 mmHg 53%
19:00 +24°C° 0 mm 2 mps 747 mmHg 57%
20:00 +23°C° 0 mm 2 mps 747 mmHg 60%
21:00 +20°C° 0 mm 2 mps 748 mmHg 63%
22:00 +20°C° 0 mm 2 mps 748 mmHg 65%
23:00 +19°C° 0 mm 2 mps 748 mmHg 67%

Tomorrow, 2 August, Monday

Time Temperature Precipitation Wind Pressure Humidity
00:00 +19°C° 0 mm 1 mps 748 mmHg 69%
01:00 +19°C° 0 mm 1 mps 748 mmHg 70%
02:00 +19°C° 0 mm 1 mps 748 mmHg 72%
03:00 +18°C° 0 mm 1 mps 748 mmHg 73%
04:00 +19°C° 0 mm 2 mps 749 mmHg 70%
05:00 +20°C° 0 mm 2 mps 749 mmHg 68%
06:00 +21°C° 0 mm 2 mps 749 mmHg 65%
07:00 +24°C° 0 mm 2 mps 749 mmHg 58%
08:00 +26°C° 0 mm 3 mps 749 mmHg 52%
09:00 +28°C° 0 mm 3 mps 749 mmHg 45%
10:00 +29°C° 0 mm 3 mps 749 mmHg 42%
11:00 +30°C° 0 mm 3 mps 749 mmHg 39%
12:00 +32°C° 0 mm 4 mps 749 mmHg 36%
13:00 +31°C° 0 mm 3 mps 748 mmHg 35%
14:00 +33°C° 0 mm 3 mps 748 mmHg 34%
15:00 +33°C° 0 mm 3 mps 748 mmHg 33%
16:00 +31°C° 0 mm 3 mps 748 mmHg 39%
17:00 +30°C° 0 mm 3 mps 748 mmHg 44%
18:00 +29°C° 0 mm 2 mps 748 mmHg 49%
19:00 +27°C° 0 mm 2 mps 748 mmHg 50%
20:00 +26°C° 0 mm 2 mps 747 mmHg 51%
21:00 +24°C° 0 mm 2 mps 747 mmHg 51%
22:00 +24°C° 0 mm 2 mps 747 mmHg 52%
23:00 +23°C° 0 mm 2 mps 747 mmHg 53%

Day after tomorrow, 3 August, Tuesday

Time Temperature Precipitation Wind Pressure Humidity
00:00 +22°C° 0 mm 3 mps 747 mmHg 54%
01:00 +21°C° 0 mm 3 mps 747 mmHg 54%
02:00 +21°C° 0 mm 3 mps 747 mmHg 54%
03:00 +21°C° 0 mm 3 mps 747 mmHg 54%
04:00 +22°C° 0 mm 3 mps 747 mmHg 53%
05:00 +23°C° 0 mm 2 mps 747 mmHg 52%
06:00 +24°C° 0 mm 2 mps 747 mmHg 51%
07:00 +27°C° 0 mm 3 mps 747 mmHg 46%
08:00 +29°C° 0 mm 4 mps 746 mmHg 41%
09:00 +32°C° 0 mm 4 mps 746 mmHg 36%
10:00 +34°C° 0 mm 5 mps 746 mmHg 33%
11:00 +35°C° 0 mm 5 mps 746 mmHg 31%
12:00 +36°C° 0 mm 6 mps 746 mmHg 29%
13:00 +38°C° 0 mm 6 mps 745 mmHg 27%
14:00 +38°C° 0 mm 6 mps 745 mmHg 25%
15:00 +39°C° 0 mm 6 mps 745 mmHg 24%
16:00 +36°C° 0 mm 5 mps 744 mmHg 28%
17:00 +34°C° 0 mm 4 mps 744 mmHg 32%
18:00 +31°C° 0 mm 3 mps 744 mmHg 37%
19:00 +30°C° 0.1 mm 3 mps 744 mmHg 45%
20:00 +28°C° 0.1 mm 4 mps 745 mmHg 52%
21:00 +26°C° 0.1 mm 4 mps 745 mmHg 60%
22:00 +25°C° 0 mm 3 mps 745 mmHg 62%
23:00 +25°C° 0 mm 2 mps 745 mmHg 64%

4 August, Wednesday

Time Temperature Precipitation Wind Pressure Humidity
00:00 +24°C° 0 mm 1 mps 745 mmHg 66%
01:00 +23°C° 0 mm 1 mps 745 mmHg 70%
02:00 +22°C° 0 mm 1 mps 745 mmHg 73%
03:00 +21°C° 0 mm 1 mps 745 mmHg 77%
04:00 +22°C° 0 mm 1 mps 745 mmHg 75%
05:00 +23°C° 0 mm 1 mps 746 mmHg 73%
06:00 +24°C° 0 mm 2 mps 746 mmHg 71%
07:00 +24°C° 0 mm 2 mps 746 mmHg 69%
08:00 +25°C° 0 mm 2 mps 746 mmHg 67%
09:00 +26°C° 0 mm 3 mps 746 mmHg 65%
10:00 +27°C° 0 mm 3 mps 746 mmHg 60%
11:00 +28°C° 0 mm 3 mps 746 mmHg 56%
12:00 +29°C° 0 mm 3 mps 746 mmHg 51%
13:00 +27°C° 0.1 mm 3 mps 746 mmHg 58%
14:00 +26°C° 0.1 mm 2 mps 747 mmHg 65%
15:00 +24°C° 0.1 mm 2 mps 747 mmHg 72%
16:00 +25°C° 0 mm 2 mps 747 mmHg 69%
17:00 +25°C° 0 mm 3 mps 747 mmHg 66%
18:00 +26°C° 0 mm 3 mps 746 mmHg 63%
19:00 +24°C° 0.2 mm 3 mps 747 mmHg 73%
20:00 +21°C° 0.2 mm 3 mps 747 mmHg 82%
21:00 +19°C° 0.2 mm 2 mps 747 mmHg 91%
22:00 +18°C° 0 mm 2 mps 748 mmHg 92%
23:00 +18°C° 0 mm 2 mps 748 mmHg 92%

5 August, Thursday

Time Temperature Precipitation Wind Pressure Humidity
00:00 +17°C° 0 mm 3 mps 748 mmHg 93%
01:00 +17°C° 0 mm 3 mps 748 mmHg 92%
02:00 +17°C° 0 mm 2 mps 748 mmHg 92%
03:00 +16°C° 0 mm 2 mps 748 mmHg 92%
04:00 +17°C° 0 mm 2 mps 749 mmHg 88%
05:00 +18°C° 0 mm 2 mps 749 mmHg 84%
06:00 +18°C° 0 mm 2 mps 749 mmHg 80%
07:00 +20°C° 0 mm 3 mps 749 mmHg 70%
08:00 +22°C° 0 mm 4 mps 749 mmHg 60%
09:00 +25°C° 0 mm 4 mps 749 mmHg 50%
10:00 +26°C° 0 mm 4 mps 749 mmHg 46%
11:00 +27°C° 0 mm 5 mps 749 mmHg 41%
12:00 +27°C° 0 mm 5 mps 749 mmHg 37%
13:00 +27°C° 0 mm 5 mps 749 mmHg 36%
14:00 +27°C° 0 mm 5 mps 749 mmHg 36%
15:00 +27°C° 0 mm 5 mps 749 mmHg 35%
16:00 +26°C° 0 mm 5 mps 749 mmHg 38%
17:00 +25°C° 0 mm 5 mps 749 mmHg 41%
18:00 +23°C° 0 mm 5 mps 749 mmHg 44%
19:00 +21°C° 0 mm 4 mps 750 mmHg 50%
20:00 +19°C° 0 mm 4 mps 750 mmHg 56%
21:00 +17°C° 0 mm 3 mps 750 mmHg 62%
22:00 +16°C° 0 mm 3 mps 750 mmHg 64%
23:00 +16°C° 0 mm 3 mps 750 mmHg 66%

6 August, Friday

Time Temperature Precipitation Wind Pressure Humidity
00:00 +14°C° 0 mm 3 mps 750 mmHg 69%
01:00 +14°C° 0 mm 3 mps 750 mmHg 70%
02:00 +13°C° 0 mm 3 mps 750 mmHg 71%
03:00 +12°C° 0 mm 3 mps 750 mmHg 72%
04:00 +13°C° 0 mm 3 mps 751 mmHg 69%
05:00 +14°C° 0 mm 3 mps 751 mmHg 65%
06:00 +14°C° 0 mm 3 mps 751 mmHg 62%
07:00 +17°C° 0 mm 4 mps 751 mmHg 56%
08:00 +19°C° 0 mm 4 mps 752 mmHg 50%
09:00 +21°C° 0 mm 5 mps 752 mmHg 44%
10:00 +22°C° 0 mm 5 mps 752 mmHg 41%
11:00 +22°C° 0 mm 5 mps 752 mmHg 38%
12:00 +23°C° 0 mm 5 mps 752 mmHg 35%
13:00 +23°C° 0 mm 5 mps 752 mmHg 35%
14:00 +25°C° 0 mm 5 mps 752 mmHg 35%
15:00 +25°C° 0 mm 5 mps 752 mmHg 35%
16:00 +23°C° 0 mm 4 mps 752 mmHg 38%
17:00 +22°C° 0 mm 3 mps 752 mmHg 41%
18:00 +22°C° 0 mm 3 mps 752 mmHg 45%
19:00 +20°C° 0 mm 3 mps 752 mmHg 50%
20:00 +18°C° 0 mm 2 mps 752 mmHg 55%
21:00 +16°C° 0 mm 2 mps 752 mmHg 60%
22:00 +15°C° 0 mm 2 mps 752 mmHg 60%
23:00 +15°C° 0 mm 2 mps 752 mmHg 60%
Show more

We Need Your Consent

Meteoprog and our Service Providers may store and access personal data such as cookies, device identifiers or other similar technologies on your device and process such data to personalise content and ads, as well as provide social media features and to analyse the traffic.

  • Store and/or access information on your device

    Cookies, device identifiers or other information can be stored or accessed on your device for the purposes indicated above.

  • Personalised ads and content, ad and content measurement, audience insights, and products development

    Ads and content can be personalised based on a profile. More data can be added to better personalise ads and content. Ad and content performance can be measured. Insights about the audience who saw the ads and content can be derived. Such data can be used to develop or improve user’s experience, systems and software.

By clicking ‘I Agree’ you will allow the use of indicated cookies, device identifiers, web beacons or other similar technologies. Your settings can be changed in the browser on your device.

For certain purposes, legitimate interests may be relied on, rather than consent. You can read more about this in our Privacy and Cookie Policy.